This is the latest recevied weather packets stored in our database for station/object HB9CYX-13. If no packets are shown the sender has not sent any weather packets the latest 10 day(s).
| Time | Temp. | Humidity | Pressure | Rain* | Wind** | Luminosity | Snow |
|---|---|---|---|---|---|---|---|
| 1777906048 | 18.33° C | 52% | 1013.8 hPa | 0 mm | - | - | - |
| 1777905311 | 18.89° C | 45% | 1013.6 hPa | 0 mm | - | - | - |
| 1777904574 | 19.44° C | 43% | 1013.4 hPa | 0 mm | - | - | - |
| 1777903837 | 20° C | 42% | 1013.3 hPa | 0 mm | - | - | - |
| 1777903100 | 20° C | 41% | 1013.2 hPa | 0 mm | - | - | - |
| 1777902362 | 20.56° C | 39% | 1013.1 hPa | 0 mm | - | - | - |
| 1777901625 | 21.11° C | 38% | 1013.1 hPa | 0 mm | - | - | - |
| 1777900888 | 21.11° C | 37% | 1013 hPa | 0 mm | - | - | - |
| 1777900151 | 21.67° C | 35% | 1012.9 hPa | 0 mm | - | - | - |
| 1777898483 | 23.33° C | 35% | 1012.8 hPa | 0 mm | - | - | - |
| 1777897747 | 23.89° C | 35% | 1012.5 hPa | 0 mm | - | - | - |
| 1777897011 | 23.89° C | 33% | 1012.7 hPa | 0 mm | - | - | - |
| 1777896275 | 25° C | 32% | 1012.6 hPa | 0 mm | - | - | - |
| 1777895538 | 24.44° C | 33% | 1012.6 hPa | 0 mm | - | - | - |
| 1777894802 | 24.44° C | 34% | 1012.7 hPa | 0 mm | - | - | - |
| 1777894066 | 25.56° C | 31% | 1012.7 hPa | 0 mm | - | - | - |
| 1777893330 | 23.89° C | 33% | 1012.9 hPa | 0 mm | - | - | - |
| 1777892594 | 26.11° C | 32% | 1012.7 hPa | 0 mm | - | - | - |
| 1777891858 | 24.44° C | 36% | 1012.9 hPa | 0 mm | - | - | - |
| 1777891122 | 23.33° C | 36% | 1013.1 hPa | 0 mm | - | - | - |
| 1777890386 | 21.67° C | 43% | 1013.6 hPa | 0 mm | - | - | - |
| 1777889649 | 20° C | 44% | 1014.2 hPa | 0 mm | - | - | - |
| 1777888913 | 20° C | 49% | 1014.5 hPa | 0 mm | - | - | - |
| 1777886930 | 19.44° C | 49% | 1015.1 hPa | 0 mm | - | - | - |
| 1777886193 | 20° C | 45% | 1015 hPa | 0 mm | - | - | - |
* Rain latest hour (hover to see other rain measurements)
** Current wind speed in m/s (hover to see current wind gust speed)